Location: São Paulo
(23.5507°S, 46.6334°W)
Time: 10:42:00
(UTC-03:00)

Transit 4A - Pass Details

Date: 23 February 2026
Orbit: 864 x 977 km, 66.8° (Epoch: 11 March)

Event Time Altitude Azimuth Distance (km) Brightness Sun altitude
Rises 12:38:53 0° 9° (N) 3,656 11.2 75.4°
Reaches altitude 10° 12:41:55 10° 22° (NNE) 2,713 10.6 75.1°
Maximum altitude 12:46:55 25° 74° (ENE) 1,862 9.8 74.7°
Drops below altitude 10° 12:51:52 10° 126° (SE) 2,699 10.3 74.1°
Sets 12:54:52 0° 139° (SE) 3,635 10.8 73.8°
